DRK801 OMDB-VQPR

Flight info

Callsign DRK801
Flight time N/A
Altitude 37000
Route IVURO M677 LALDO B505 NADSO A777 VAXIM L301 RASKI L639 BPL G590 BBN W44 PPT Q18 BGD G348 SUBSU SUBSU1
Aircraft A319/M-SDE3FGHIRWY/LB1

Departure

Time 2026-04-26 09:28
Airport Dubai International Airport (OMDB)

Arrival

Time N/A
Airport Paro International Airport (VQPR)
Time Latitude Longitude Altitude Speed Heading
2026-04-26 08:27 25.26036 55.34093 22 ft 0 kts 122°
2026-04-26 09:02 25.26036 55.34092 21 ft 1 kts 122°
2026-04-26 09:03 25.26049 55.34069 24 ft 4 kts 122°
2026-04-26 09:03 25.26064 55.34044 23 ft 4 kts 122°
2026-04-26 09:03 25.26074 55.34024 22 ft 4 kts 105°
2026-04-26 09:03 25.26073 55.33998 21 ft 4 kts 53°
2026-04-26 09:04 25.26055 55.33980 22 ft 4 kts 31°
2026-04-26 09:04 25.26046 55.33974 22 ft 0 kts 31°
2026-04-26 09:11 25.26063 55.33985 21 ft 7 kts 31°
2026-04-26 09:11 25.26129 55.34030 21 ft 14 kts 31°
2026-04-26 09:12 25.26221 55.34091 24 ft 16 kts 31°
2026-04-26 09:12 25.26285 55.34147 21 ft 11 kts 65°
2026-04-26 09:12 25.26258 55.34232 21 ft 14 kts 122°
2026-04-26 09:12 25.26206 55.34323 21 ft 13 kts 122°
2026-04-26 09:13 25.26159 55.34407 21 ft 11 kts 121°
2026-04-26 09:13 25.26118 55.34479 21 ft 11 kts 122°
2026-04-26 09:13 25.26075 55.34556 21 ft 13 kts 121°
2026-04-26 09:13 25.26109 55.34650 21 ft 16 kts 46°
2026-04-26 09:14 25.26139 55.34686 22 ft 0 kts 47°
2026-04-26 09:15 25.26160 55.34711 21 ft 9 kts 47°
2026-04-26 09:15 25.26211 55.34767 22 ft 12 kts 36°
2026-04-26 09:15 25.26282 55.34815 22 ft 12 kts 31°
2026-04-26 09:16 25.26352 55.34869 25 ft 12 kts 57°
2026-04-26 09:16 25.26330 55.34952 26 ft 13 kts 122°
2026-04-26 09:16 25.26277 55.35046 23 ft 16 kts 122°
2026-04-26 09:16 25.26216 55.35153 25 ft 17 kts 122°
2026-04-26 09:17 25.26153 55.35265 23 ft 18 kts 122°
2026-04-26 09:17 25.26086 55.35384 24 ft 19 kts 122°
2026-04-26 09:17 25.26015 55.35509 22 ft 20 kts 122°
2026-04-26 09:17 25.25943 55.35639 22 ft 20 kts 122°
2026-04-26 09:18 25.25868 55.35772 24 ft 21 kts 122°
2026-04-26 09:18 25.25791 55.35909 23 ft 21 kts 122°
2026-04-26 09:18 25.25712 55.36050 22 ft 22 kts 122°
2026-04-26 09:18 25.25628 55.36198 23 ft 23 kts 122°
2026-04-26 09:19 25.25540 55.36354 22 ft 26 kts 122°
2026-04-26 09:19 25.25444 55.36525 22 ft 27 kts 122°
2026-04-26 09:19 25.25345 55.36701 23 ft 27 kts 122°
2026-04-26 09:19 25.25245 55.36879 23 ft 27 kts 122°
2026-04-26 09:20 25.25144 55.37058 24 ft 27 kts 122°
2026-04-26 09:20 25.25043 55.37237 24 ft 28 kts 122°
2026-04-26 09:20 25.24940 55.37420 24 ft 28 kts 122°
2026-04-26 09:20 25.24837 55.37604 23 ft 28 kts 121°
2026-04-26 09:21 25.24746 55.37767 23 ft 17 kts 122°
2026-04-26 09:21 25.24699 55.37849 24 ft 12 kts 122°
2026-04-26 09:21 25.24664 55.37935 22 ft 12 kts 88°
2026-04-26 09:21 25.24698 55.37978 23 ft 0 kts 30°
2026-04-26 09:25 25.24716 55.37989 25 ft 11 kts 30°
2026-04-26 09:25 25.24803 55.38020 26 ft 14 kts 336°
2026-04-26 09:26 25.24845 55.37955 25 ft 5 kts 301°
2026-04-26 09:26 25.24849 55.37948 25 ft 0 kts 301°
2026-04-26 09:26 25.24850 55.37947 25 ft 0 kts 301°
2026-04-26 09:27 25.24887 55.37879 29 ft 37 kts 301°
2026-04-26 09:27 25.25138 55.37431 27 ft 98 kts 302°
2026-04-26 09:27 25.25583 55.36630 26 ft 146 kts 302°
2026-04-26 09:27 25.26139 55.35626 430 ft 153 kts 302°
2026-04-26 09:28 25.26704 55.34627 1030 ft 153 kts 303°
2026-04-26 09:28 25.27279 55.33592 1445 ft 167 kts 303°
2026-04-26 09:28 25.27917 55.32442 1837 ft 180 kts 302°
2026-04-26 09:28 25.28577 55.31248 2390 ft 184 kts 303°
2026-04-26 09:29 25.29331 55.30121 2952 ft 187 kts 321°
2026-04-26 09:29 25.30501 55.29520 3551 ft 192 kts 349°
2026-04-26 09:29 25.31866 55.29510 4086 ft 198 kts 359°
2026-04-26 09:29 25.33259 55.29550 4632 ft 202 kts 359°
2026-04-26 09:30 25.34674 55.29585 5195 ft 205 kts 359°
2026-04-26 09:30 25.36137 55.29622 5569 ft 220 kts 359°
2026-04-26 09:30 25.37742 55.29666 5897 ft 239 kts
2026-04-26 09:30 25.39387 55.30106 6534 ft 249 kts 22°
2026-04-26 09:31 25.40858 55.31165 6961 ft 270 kts 42°
2026-04-26 09:31 25.42124 55.32813 7377 ft 289 kts 50°
2026-04-26 09:31 25.43396 55.34571 8058 ft 295 kts 50°
2026-04-26 09:31 25.44689 55.36358 8797 ft 300 kts 50°
2026-04-26 09:32 25.46003 55.38168 9576 ft 304 kts 49°
2026-04-26 09:32 25.47341 55.40003 10242 ft 311 kts 49°
2026-04-26 09:32 25.48752 55.41933 10465 ft 334 kts 50°
2026-04-26 09:32 25.50183 55.44074 10640 ft 359 kts 58°
2026-04-26 09:33 25.51211 55.46681 10774 ft 382 kts 74°
2026-04-26 09:33 25.51616 55.49624 11185 ft 393 kts 89°
2026-04-26 09:33 25.51357 55.52644 11780 ft 397 kts 103°
2026-04-26 09:33 25.50440 55.55521 12434 ft 398 kts 118°
2026-04-26 09:34 25.49045 55.58116 13087 ft 399 kts 124°
2026-04-26 09:34 25.47568 55.60723 13748 ft 401 kts 124°
2026-04-26 09:34 25.46070 55.63343 14315 ft 405 kts 124°
2026-04-26 09:34 25.44553 55.65983 14852 ft 408 kts 124°
2026-04-26 09:35 25.43127 55.68727 15379 ft 414 kts 116°
2026-04-26 09:35 25.42127 55.71734 15909 ft 421 kts 106°
2026-04-26 09:35 25.41445 55.74895 16431 ft 425 kts 104°
2026-04-26 09:35 25.40763 55.78103 16982 ft 429 kts 104°
2026-04-26 09:36 25.40077 55.81330 17513 ft 434 kts 104°
2026-04-26 09:36 25.39392 55.84555 18039 ft 439 kts 104°
2026-04-26 09:36 25.38690 55.87851 18509 ft 443 kts 104°
2026-04-26 09:36 25.37977 55.91185 18962 ft 447 kts 104°
2026-04-26 09:37 25.37261 55.94533 19410 ft 450 kts 104°
2026-04-26 09:37 25.36538 55.97912 19851 ft 453 kts 104°
2026-04-26 09:37 25.35809 56.01315 20281 ft 456 kts 105°
2026-04-26 09:37 25.35073 56.04737 20701 ft 460 kts 105°
2026-04-26 09:38 25.34330 56.08187 21116 ft 463 kts 105°
2026-04-26 09:38 25.33582 56.11663 21521 ft 466 kts 105°
2026-04-26 09:38 25.32871 56.15167 21925 ft 470 kts 101°
2026-04-26 09:38 25.32503 56.18773 22324 ft 474 kts 96°
2026-04-26 09:39 25.32217 56.22366 22709 ft 477 kts 97°
2026-04-26 09:39 25.31914 56.26031 23120 ft 480 kts 97°
2026-04-26 09:39 25.31602 56.29721 23495 ft 483 kts 97°
2026-04-26 09:39 25.31285 56.33429 23798 ft 486 kts 97°
2026-04-26 09:40 25.30969 56.37157 24138 ft 488 kts 97°
2026-04-26 09:40 25.30671 56.40899 24463 ft 491 kts 96°
2026-04-26 09:40 25.30471 56.44679 24763 ft 494 kts 94°
2026-04-26 09:40 25.30359 56.48486 25073 ft 497 kts 92°
2026-04-26 09:41 25.30296 56.52269 25372 ft 500 kts 92°
2026-04-26 09:41 25.30224 56.56110 25657 ft 502 kts 94°
2026-04-26 09:41 25.29783 56.59940 25947 ft 503 kts 103°
2026-04-26 09:41 25.28816 56.63644 26213 ft 502 kts 113°
2026-04-26 09:42 25.27462 56.67207 26508 ft 504 kts 116°
2026-04-26 09:42 25.26084 56.70768 26797 ft 506 kts 115°
2026-04-26 09:42 25.24708 56.74359 27077 ft 508 kts 115°
2026-04-26 09:42 25.23339 56.77964 27404 ft 510 kts 115°
2026-04-26 09:43 25.21978 56.81576 27831 ft 509 kts 115°
2026-04-26 09:43 25.20623 56.85179 28254 ft 508 kts 115°
2026-04-26 09:43 25.19283 56.88734 28682 ft 507 kts 115°
2026-04-26 09:43 25.17926 56.92320 29121 ft 506 kts 115°
2026-04-26 09:44 25.16562 56.95902 29551 ft 506 kts 115°
2026-04-26 09:44 25.15196 56.99473 29961 ft 505 kts 115°
2026-04-26 09:44 25.13828 57.03044 30314 ft 505 kts 115°
2026-04-26 09:44 25.12460 57.06615 30631 ft 506 kts 114°
2026-04-26 09:45 25.11091 57.10190 30929 ft 507 kts 114°
2026-04-26 09:45 25.09722 57.13778 31215 ft 508 kts 114°
2026-04-26 09:45 25.08364 57.17334 31521 ft 509 kts 114°
2026-04-26 09:45 25.06987 57.20934 31829 ft 510 kts 113°
2026-04-26 09:46 25.05604 57.24539 32129 ft 512 kts 113°
2026-04-26 09:46 25.04211 57.28165 32423 ft 513 kts 113°
2026-04-26 09:46 25.02819 57.31785 32727 ft 514 kts 112°
2026-04-26 09:46 25.01421 57.35418 33029 ft 516 kts 112°
2026-04-26 09:47 25.00018 57.39063 33337 ft 517 kts 112°
2026-04-26 09:47 24.98610 57.42714 33666 ft 517 kts 111°
2026-04-26 09:47 24.97208 57.46351 33999 ft 517 kts 111°
2026-04-26 09:47 24.95804 57.49996 34294 ft 517 kts 111°
2026-04-26 09:48 24.94419 57.53588 34625 ft 516 kts 111°
2026-04-26 09:48 24.93011 57.57225 34936 ft 516 kts 111°
2026-04-26 09:48 24.91602 57.60859 35261 ft 515 kts 111°
2026-04-26 09:48 24.90200 57.64485 35572 ft 515 kts 111°
2026-04-26 09:49 24.88796 57.68113 35904 ft 514 kts 111°
2026-04-26 09:49 24.87394 57.71723 36228 ft 512 kts 111°
2026-04-26 09:49 24.85994 57.75327 36525 ft 512 kts 111°
2026-04-26 09:49 24.84593 57.78930 36767 ft 512 kts 111°
2026-04-26 09:50 24.83187 57.82540 36832 ft 514 kts 112°
2026-04-26 09:50 24.80231 57.89645 36835 ft 514 kts 114°
2026-04-26 09:51 24.77074 57.96702 36825 ft 514 kts 115°
2026-04-26 09:51 24.73908 58.03759 36830 ft 514 kts 114°
2026-04-26 09:52 24.70805 58.10842 36830 ft 514 kts 114°
2026-04-26 09:52 24.66192 58.21429 36840 ft 514 kts 114°
2026-04-26 09:53 24.63082 58.28503 36834 ft 514 kts 114°
2026-04-26 09:53 24.59964 58.35568 36835 ft 514 kts 114°
2026-04-26 09:54 24.56843 58.42630 36831 ft 514 kts 114°
2026-04-26 09:54 24.53730 58.49687 36835 ft 513 kts 114°
2026-04-26 09:55 24.50638 58.56696 36834 ft 513 kts 114°
2026-04-26 09:55 24.47519 58.63742 36823 ft 513 kts 114°
2026-04-26 09:56 24.44400 58.70772 36826 ft 512 kts 114°
2026-04-26 09:56 24.41277 58.77801 36826 ft 512 kts 114°
2026-04-26 09:57 24.38171 58.84776 36819 ft 512 kts 114°
2026-04-26 09:57 24.35051 58.91792 36820 ft 512 kts 114°
2026-04-26 09:58 24.31932 58.98808 36821 ft 512 kts 114°
2026-04-26 09:58 24.28810 59.05809 36818 ft 511 kts 114°
2026-04-26 09:59 24.27242 59.09315 36544 ft 514 kts 114°
2026-04-26 09:59 24.26198 59.11649 36195 ft 514 kts 114°
2026-04-26 09:59 24.22578 59.19723 36245 ft 508 kts 114°
2026-04-26 10:00 24.19453 59.26685 36495 ft 509 kts 114°
2026-04-26 10:00 24.17895 59.30164 36742 ft 510 kts 114°
2026-04-26 10:00 24.16331 59.33653 36827 ft 510 kts 114°
2026-04-26 10:01 24.13221 59.40554 36819 ft 508 kts 114°
2026-04-26 10:01 24.10089 59.47485 36823 ft 508 kts 114°
2026-04-26 10:02 24.06967 59.54411 36819 ft 507 kts 114°
2026-04-26 10:02 24.03839 59.61333 36825 ft 507 kts 114°
2026-04-26 10:03 24.00715 59.68240 36829 ft 507 kts 114°
2026-04-26 10:03 23.97616 59.75100 36826 ft 506 kts 114°
2026-04-26 10:04 23.94487 59.81992 36826 ft 506 kts 114°
2026-04-26 10:04 23.91355 59.88877 36823 ft 506 kts 114°
2026-04-26 10:05 23.88222 59.95753 36834 ft 505 kts 114°
2026-04-26 10:05 23.85121 60.02572 36834 ft 504 kts 114°
2026-04-26 10:06 23.81994 60.09414 36833 ft 504 kts 114°
2026-04-26 10:06 23.78858 60.16258 36830 ft 503 kts 114°
2026-04-26 10:07 23.75732 60.23086 36829 ft 503 kts 114°
2026-04-26 10:07 23.72626 60.29868 36829 ft 503 kts 114°
2026-04-26 10:08 23.69495 60.36695 36828 ft 503 kts 114°
2026-04-26 10:08 23.66363 60.43513 36826 ft 503 kts 114°
2026-04-26 10:09 23.63759 60.49177 36831 ft 503 kts 114°
2026-04-26 10:09 23.60111 60.57096 36833 ft 502 kts 115°
2026-04-26 10:10 23.56966 60.63898 36829 ft 502 kts 115°
2026-04-26 10:10 23.53813 60.70684 36825 ft 502 kts 114°
2026-04-26 10:11 23.51201 60.76324 36829 ft 502 kts 114°
2026-04-26 10:11 23.47553 60.84208 36837 ft 501 kts 114°
2026-04-26 10:12 23.44413 60.90970 36836 ft 500 kts 114°
2026-04-26 10:12 23.41807 60.96584 36835 ft 500 kts 114°
2026-04-26 10:13 23.38670 61.03333 36832 ft 499 kts 115°
2026-04-26 10:13 23.35014 61.11162 36826 ft 499 kts 115°
2026-04-26 10:14 23.32544 61.16863 36833 ft 495 kts 106°
2026-04-26 10:14 23.31167 61.24054 36834 ft 486 kts 91°
2026-04-26 10:15 23.30542 61.31378 36830 ft 486 kts 92°
2026-04-26 10:15 23.29884 61.38587 36838 ft 486 kts 92°
2026-04-26 10:16 23.29218 61.45888 36834 ft 485 kts 92°
2026-04-26 10:16 23.28567 61.53146 36832 ft 485 kts 92°
2026-04-26 10:17 23.27913 61.60441 36829 ft 485 kts 92°
2026-04-26 10:17 23.27265 61.67736 36827 ft 484 kts 92°
2026-04-26 10:18 23.26606 61.75023 36825 ft 484 kts 92°
2026-04-26 10:18 23.25944 61.82267 36827 ft 484 kts 92°
2026-04-26 10:19 23.25269 61.89555 36824 ft 484 kts 92°
2026-04-26 10:19 23.24593 61.96843 36823 ft 484 kts 92°
2026-04-26 10:20 23.23917 62.04116 36832 ft 483 kts 92°
2026-04-26 10:20 23.23241 62.11380 36834 ft 483 kts 92°
2026-04-26 10:21 23.22560 62.18634 36836 ft 482 kts 92°
2026-04-26 10:21 23.21882 62.25842 36840 ft 482 kts 93°
2026-04-26 10:22 23.21203 62.33097 36837 ft 482 kts 93°
2026-04-26 10:22 23.20512 62.40348 36835 ft 482 kts 93°
2026-04-26 10:23 23.19818 62.47594 36834 ft 482 kts 93°
2026-04-26 10:23 23.19122 62.54796 36836 ft 482 kts 93°
2026-04-26 10:24 23.18413 62.62050 36838 ft 483 kts 93°
2026-04-26 10:24 23.17710 62.69311 36836 ft 483 kts 93°
2026-04-26 10:25 23.16996 62.76567 36834 ft 483 kts 94°
2026-04-26 10:25 23.16286 62.83828 36835 ft 483 kts 94°
2026-04-26 10:26 23.15579 62.91036 36840 ft 483 kts 94°
2026-04-26 10:26 23.14856 62.98288 36831 ft 482 kts 94°
2026-04-26 10:27 23.14131 63.05532 36837 ft 482 kts 94°
2026-04-26 10:27 23.13416 63.12760 36835 ft 481 kts 94°
2026-04-26 10:28 23.12691 63.19997 36835 ft 481 kts 94°
2026-04-26 10:28 23.11966 63.27214 36832 ft 481 kts 94°
2026-04-26 10:29 23.11234 63.34385 36825 ft 481 kts 94°
2026-04-26 10:29 23.10494 63.41606 36822 ft 481 kts 94°
2026-04-26 10:30 23.09757 63.48819 36823 ft 480 kts 94°
2026-04-26 10:30 23.09022 63.56025 36822 ft 480 kts 94°
2026-04-26 10:31 23.08282 63.63238 36823 ft 480 kts 94°
2026-04-26 10:31 23.07542 63.70400 36824 ft 481 kts 94°
2026-04-26 10:32 23.06791 63.77613 36832 ft 481 kts 94°
2026-04-26 10:32 23.06035 63.84825 36838 ft 481 kts 94°
2026-04-26 10:33 23.05274 63.92038 36840 ft 481 kts 94°
2026-04-26 10:33 23.04540 63.99246 36838 ft 480 kts 94°
2026-04-26 10:34 23.03819 64.06455 36841 ft 480 kts 94°
2026-04-26 10:34 23.03094 64.13615 36837 ft 480 kts 94°
2026-04-26 10:35 23.02357 64.20817 36846 ft 479 kts 94°
2026-04-26 10:35 23.01616 64.27988 36852 ft 477 kts 94°
2026-04-26 10:36 23.00871 64.35146 36853 ft 476 kts 94°
2026-04-26 10:36 23.00121 64.42282 36853 ft 476 kts 95°
2026-04-26 10:37 22.99381 64.49361 36851 ft 475 kts 95°
2026-04-26 10:37 22.98629 64.56483 36848 ft 475 kts 95°
2026-04-26 10:38 22.97881 64.63602 36843 ft 475 kts 95°
2026-04-26 10:38 22.97126 64.70715 36840 ft 474 kts 95°
2026-04-26 10:39 22.96370 64.77819 36837 ft 474 kts 95°
2026-04-26 10:39 22.95786 64.84888 36834 ft 472 kts 87°
2026-04-26 10:40 22.95840 64.92002 36834 ft 472 kts 87°
2026-04-26 10:40 22.95884 64.99118 36835 ft 472 kts 88°
2026-04-26 10:41 22.95923 65.06231 36833 ft 472 kts 88°
2026-04-26 10:41 22.95950 65.13352 36834 ft 472 kts 88°
2026-04-26 10:42 22.95987 65.20427 36837 ft 472 kts 88°
2026-04-26 10:42 22.96018 65.27541 36843 ft 472 kts 88°
2026-04-26 10:43 22.96042 65.34659 36841 ft 472 kts 88°
2026-04-26 10:43 22.96062 65.41782 36841 ft 472 kts 88°
2026-04-26 10:44 22.96082 65.48899 36839 ft 472 kts 88°
2026-04-26 10:44 22.96103 65.55974 36838 ft 472 kts 88°
2026-04-26 10:45 22.96123 65.63085 36843 ft 472 kts 89°
2026-04-26 10:45 22.96126 65.70209 36841 ft 472 kts 89°
2026-04-26 10:46 22.96133 65.77323 36831 ft 471 kts 89°
2026-04-26 10:46 22.96143 65.84430 36829 ft 471 kts 89°
2026-04-26 10:47 22.96143 65.91543 36826 ft 471 kts 89°
2026-04-26 10:47 22.96134 65.98651 36832 ft 471 kts 89°
2026-04-26 10:48 22.96132 66.05750 36829 ft 471 kts 89°
2026-04-26 10:48 22.96119 66.12857 36825 ft 471 kts 89°
2026-04-26 10:49 22.96102 66.19972 36826 ft 471 kts 89°
2026-04-26 10:49 22.96086 66.27076 36825 ft 471 kts 89°
2026-04-26 10:50 22.96072 66.32993 36826 ft 471 kts 89°
2026-04-26 10:50 22.96057 66.41252 36822 ft 471 kts 89°
2026-04-26 10:51 22.96019 66.51920 36815 ft 471 kts 89°
2026-04-26 10:52 22.95993 66.59023 36824 ft 471 kts 90°
2026-04-26 10:52 22.95957 66.66131 36823 ft 471 kts 90°
2026-04-26 10:53 22.95922 66.73244 36824 ft 471 kts 90°
2026-04-26 10:53 22.95882 66.80353 36825 ft 471 kts 90°
2026-04-26 10:54 22.95816 66.91022 36827 ft 471 kts 90°
2026-04-26 10:54 22.95765 66.98138 36825 ft 471 kts 90°
2026-04-26 10:55 22.95773 67.05204 36820 ft 471 kts 89°
2026-04-26 10:55 22.95816 67.12304 36820 ft 471 kts 89°
2026-04-26 10:56 22.95846 67.19411 36817 ft 471 kts 89°
2026-04-26 10:56 22.95850 67.26512 36817 ft 470 kts 89°
2026-04-26 10:57 22.95843 67.33608 36813 ft 470 kts 89°
2026-04-26 10:57 22.95844 67.40699 36816 ft 470 kts 89°
2026-04-26 10:58 22.95847 67.47790 36811 ft 470 kts 89°
2026-04-26 10:58 22.95845 67.54879 36804 ft 470 kts 89°
2026-04-26 10:59 22.95832 67.61960 36807 ft 470 kts 89°
2026-04-26 10:59 22.95821 67.69050 36803 ft 469 kts 89°
2026-04-26 11:00 22.95813 67.76128 36796 ft 469 kts 89°
2026-04-26 11:00 22.95796 67.83165 36798 ft 469 kts 89°
2026-04-26 11:01 22.95778 67.90253 36799 ft 470 kts 89°
2026-04-26 11:01 22.95784 67.97337 36794 ft 470 kts 89°
2026-04-26 11:02 22.95804 68.04415 36792 ft 470 kts 89°
2026-04-26 11:02 22.95810 68.11511 36797 ft 470 kts 89°
2026-04-26 11:03 22.95805 68.18604 36794 ft 470 kts 89°
2026-04-26 11:03 22.95795 68.25694 36819 ft 470 kts 89°
2026-04-26 11:04 22.95791 68.32723 36821 ft 469 kts 89°
2026-04-26 11:04 22.95756 68.39798 36816 ft 468 kts 91°
2026-04-26 11:05 22.95408 68.46846 36810 ft 468 kts 94°
2026-04-26 11:05 22.94896 68.53880 36807 ft 467 kts 94°
2026-04-26 11:06 22.94500 68.59724 36803 ft 467 kts 93°
2026-04-26 11:06 22.94025 68.67955 36801 ft 467 kts 93°
2026-04-26 11:07 22.93632 68.74988 36796 ft 468 kts 93°
2026-04-26 11:07 22.93224 68.81985 36796 ft 468 kts 93°
2026-04-26 11:08 22.92802 68.89029 36786 ft 468 kts 93°
2026-04-26 11:08 22.92377 68.96088 36786 ft 469 kts 94°
2026-04-26 11:09 22.91951 69.03134 36787 ft 468 kts 94°
2026-04-26 11:09 22.91518 69.10180 36790 ft 468 kts 94°
2026-04-26 11:10 22.91081 69.17233 36790 ft 469 kts 94°
2026-04-26 11:10 22.90646 69.24248 36778 ft 469 kts 94°
2026-04-26 11:11 22.90210 69.31312 36773 ft 470 kts 94°
2026-04-26 11:11 22.89771 69.38389 36777 ft 471 kts 94°
2026-04-26 11:12 22.89322 69.45472 36776 ft 471 kts 94°
2026-04-26 11:12 22.88866 69.52553 36789 ft 471 kts 94°
2026-04-26 11:13 22.88412 69.59643 36788 ft 471 kts 94°
2026-04-26 11:13 22.87952 69.66720 36781 ft 471 kts 94°
2026-04-26 11:14 22.87501 69.73757 36787 ft 471 kts 93°
2026-04-26 11:14 22.87164 69.79690 36789 ft 471 kts 93°
2026-04-26 11:15 22.86703 69.87925 36789 ft 471 kts 93°
2026-04-26 11:15 22.86293 69.95004 36786 ft 471 kts 93°
2026-04-26 11:16 22.85866 70.02077 36779 ft 470 kts 93°
2026-04-26 11:16 22.85442 70.09151 36789 ft 470 kts 93°
2026-04-26 11:17 22.85020 70.16170 36798 ft 469 kts 93°
2026-04-26 11:17 22.84594 70.23229 36794 ft 469 kts 93°
2026-04-26 11:18 22.84163 70.30284 36791 ft 469 kts 93°
2026-04-26 11:18 22.83738 70.37339 36796 ft 469 kts 93°
2026-04-26 11:19 22.83306 70.44391 36796 ft 469 kts 93°
2026-04-26 11:19 22.82867 70.51441 36798 ft 469 kts 94°
2026-04-26 11:20 22.82497 70.57306 36807 ft 469 kts 94°
2026-04-26 11:20 22.81980 70.65513 36800 ft 470 kts 94°
2026-04-26 11:21 22.81534 70.72566 36799 ft 470 kts 94°
2026-04-26 11:21 22.81084 70.79634 36797 ft 470 kts 94°
2026-04-26 11:22 22.81342 70.86676 36801 ft 469 kts 80°
2026-04-26 11:22 22.82400 70.93653 36797 ft 469 kts 80°
2026-04-26 11:23 22.83448 71.00625 36794 ft 469 kts 80°
2026-04-26 11:23 22.84492 71.07610 36773 ft 469 kts 81°
2026-04-26 11:24 22.85532 71.14596 36769 ft 469 kts 80°
2026-04-26 11:24 22.86558 71.21532 36763 ft 469 kts 81°
2026-04-26 11:25 22.87586 71.28521 36763 ft 470 kts 81°
2026-04-26 11:25 22.88625 71.35519 36758 ft 470 kts 80°
2026-04-26 11:26 22.89667 71.42510 36766 ft 470 kts 80°
2026-04-26 11:26 22.90693 71.49471 36767 ft 470 kts 81°
2026-04-26 11:27 22.91710 71.56470 36761 ft 470 kts 81°
2026-04-26 11:27 22.92723 71.63474 36754 ft 470 kts 81°
2026-04-26 11:28 22.93740 71.70473 36745 ft 470 kts 81°
2026-04-26 11:28 22.94757 71.77470 36746 ft 470 kts 81°
2026-04-26 11:29 22.95767 71.84425 36744 ft 470 kts 81°
2026-04-26 11:29 22.96775 71.91429 36745 ft 470 kts 81°
2026-04-26 11:30 22.97616 71.97295 36741 ft 469 kts 81°
2026-04-26 11:30 22.98782 72.05429 36736 ft 470 kts 81°
2026-04-26 11:31 22.99780 72.12434 36733 ft 470 kts 81°
2026-04-26 11:31 23.00775 72.19431 36731 ft 470 kts 81°
2026-04-26 11:32 23.01600 72.25258 36728 ft 470 kts 81°
2026-04-26 11:32 23.02753 72.33400 36717 ft 470 kts 81°
2026-04-26 11:33 23.03743 72.40417 36711 ft 470 kts 81°
2026-04-26 11:33 23.04735 72.47432 36708 ft 470 kts 81°
2026-04-26 11:34 23.05174 72.50578 36708 ft 470 kts 81°
2026-04-26 11:34 23.06306 72.58740 36706 ft 470 kts 81°
2026-04-26 11:35 23.07047 72.65777 36703 ft 470 kts 86°
2026-04-26 11:35 23.07377 72.71673 36701 ft 470 kts 87°
2026-04-26 11:36 23.07769 72.78755 36702 ft 470 kts 87°
2026-04-26 11:36 23.08162 72.85841 36707 ft 470 kts 87°
2026-04-26 11:37 23.08554 72.92926 36711 ft 470 kts 87°
2026-04-26 11:37 23.08946 73.00012 36713 ft 470 kts 87°
2026-04-26 11:38 23.09331 73.07052 36710 ft 470 kts 87°
2026-04-26 11:38 23.09712 73.14151 36715 ft 471 kts 87°
2026-04-26 11:39 23.10084 73.21250 36715 ft 471 kts 87°
2026-04-26 11:39 23.10456 73.28299 36714 ft 471 kts 87°
2026-04-26 11:40 23.10829 73.35397 36711 ft 471 kts 87°
2026-04-26 11:40 23.11199 73.42492 36712 ft 471 kts 87°
2026-04-26 11:42 23.12646 73.70878 36723 ft 472 kts 87°
2026-04-26 11:43 23.13001 73.77997 36726 ft 472 kts 87°
2026-04-26 11:43 23.13346 73.85117 36737 ft 472 kts 87°
2026-04-26 11:44 23.13690 73.92246 36733 ft 473 kts 87°
2026-04-26 11:44 23.14043 73.99345 36723 ft 475 kts 87°
2026-04-26 11:45 23.14387 74.06533 36729 ft 477 kts 87°
2026-04-26 11:45 23.14725 74.13750 36744 ft 479 kts 87°
2026-04-26 11:46 23.15063 74.20988 36746 ft 480 kts 87°
2026-04-26 11:46 23.15399 74.28188 36758 ft 481 kts 87°
2026-04-26 11:47 23.15734 74.35447 36758 ft 481 kts 88°
2026-04-26 11:47 23.15932 74.42713 36774 ft 481 kts 89°
2026-04-26 11:48 23.16029 74.49987 36789 ft 481 kts 90°
2026-04-26 11:48 23.16144 74.57212 36791 ft 481 kts 89°
2026-04-26 11:49 23.16294 74.64490 36802 ft 482 kts 89°
2026-04-26 11:49 23.16445 74.71767 36805 ft 482 kts 89°
2026-04-26 11:50 23.16583 74.79040 36813 ft 481 kts 89°
2026-04-26 11:50 23.16711 74.86312 36814 ft 482 kts 89°
2026-04-26 11:51 23.16839 74.93542 36818 ft 482 kts 89°
2026-04-26 11:51 23.16972 75.00822 36817 ft 481 kts 89°
2026-04-26 11:52 23.17103 75.08093 36818 ft 481 kts 89°
2026-04-26 11:52 23.17230 75.15358 36816 ft 481 kts 89°
2026-04-26 11:53 23.17346 75.22623 36822 ft 481 kts 89°
2026-04-26 11:54 23.17517 75.33476 36826 ft 481 kts 90°
2026-04-26 11:54 23.17624 75.40753 36828 ft 481 kts 90°
2026-04-26 11:55 23.17732 75.48019 36830 ft 482 kts 90°
2026-04-26 11:55 23.17841 75.55299 36828 ft 482 kts 90°
2026-04-26 11:56 23.17939 75.62543 36827 ft 482 kts 90°
2026-04-26 11:56 23.18030 75.69833 36829 ft 483 kts 90°
2026-04-26 11:57 23.18128 75.77125 36836 ft 483 kts 90°
2026-04-26 11:57 23.18225 75.84424 36833 ft 483 kts 90°
2026-04-26 11:58 23.18310 75.91675 36831 ft 483 kts 90°
2026-04-26 11:58 23.18389 75.98975 36832 ft 483 kts 90°
2026-04-26 11:59 23.18710 76.06272 36832 ft 484 kts 86°
2026-04-26 11:59 23.19373 76.13557 36836 ft 484 kts 84°
2026-04-26 12:00 23.20055 76.20835 36851 ft 484 kts 85°
2026-04-26 12:00 23.20632 76.28066 36853 ft 482 kts 86°
2026-04-26 12:01 23.21156 76.35324 36853 ft 482 kts 86°
2026-04-26 12:01 23.21685 76.42582 36851 ft 482 kts 86°
2026-04-26 12:02 23.22232 76.49840 36851 ft 481 kts 86°
2026-04-26 12:02 23.22784 76.57091 36841 ft 481 kts 85°
2026-04-26 12:03 23.23327 76.64296 36837 ft 482 kts 86°
2026-04-26 12:03 23.23869 76.71564 36831 ft 482 kts 86°
2026-04-26 12:04 23.24401 76.78832 36830 ft 482 kts 86°
2026-04-26 12:04 23.24934 76.86096 36827 ft 482 kts 86°
2026-04-26 12:05 23.25464 76.93319 36809 ft 483 kts 85°
2026-04-26 12:05 23.25995 77.00620 36787 ft 485 kts 85°
2026-04-26 12:06 23.26513 77.07943 36787 ft 486 kts 85°
2026-04-26 12:06 23.27036 77.15269 36781 ft 487 kts 85°
2026-04-26 12:07 23.27558 77.22610 36777 ft 487 kts 85°
2026-04-26 12:07 23.28200 77.29902 36758 ft 488 kts 78°
2026-04-26 12:08 23.30415 77.36845 36760 ft 487 kts 60°
2026-04-26 12:08 23.34053 77.43058 36764 ft 487 kts 54°
2026-04-26 12:09 23.37788 77.49213 36774 ft 488 kts 55°
2026-04-26 12:09 23.41495 77.55346 36778 ft 489 kts 55°
2026-04-26 12:10 23.45234 77.61528 36767 ft 489 kts 55°
2026-04-26 12:10 23.48984 77.67726 36764 ft 490 kts 55°
2026-04-26 12:11 23.52737 77.73944 36756 ft 492 kts 55°
2026-04-26 12:11 23.56489 77.80176 36771 ft 492 kts 55°
2026-04-26 12:12 23.60220 77.86378 36792 ft 493 kts 55°
2026-04-26 12:12 23.63976 77.92621 36803 ft 491 kts 55°
2026-04-26 12:13 23.67714 77.98844 36800 ft 490 kts 54°
2026-04-26 12:13 23.71449 78.05068 36796 ft 490 kts 54°
2026-04-26 12:14 23.75157 78.11262 36789 ft 490 kts 55°
2026-04-26 12:14 23.78882 78.17499 36788 ft 490 kts 55°
2026-04-26 12:15 23.82607 78.23733 36791 ft 490 kts 55°
2026-04-26 12:15 23.86309 78.29929 36790 ft 490 kts 55°
2026-04-26 12:16 23.90012 78.36143 36779 ft 484 kts 55°
2026-04-26 12:16 23.93675 78.42295 36764 ft 483 kts 55°
2026-04-26 12:17 23.97326 78.48418 36770 ft 478 kts 55°
2026-04-26 12:17 24.00920 78.54462 36769 ft 476 kts 55°
2026-04-26 12:18 24.04502 78.60535 36778 ft 476 kts 55°
2026-04-26 12:18 24.08073 78.66635 36774 ft 476 kts 56°
2026-04-26 12:19 24.11640 78.72742 36770 ft 476 kts 55°
2026-04-26 12:19 24.15210 78.78837 36774 ft 476 kts 55°
2026-04-26 12:20 24.18788 78.84947 36773 ft 476 kts 55°
2026-04-26 12:20 24.22343 78.91013 36768 ft 476 kts 55°
2026-04-26 12:21 24.25915 78.97122 36772 ft 476 kts 56°
2026-04-26 12:21 24.29472 79.03235 36751 ft 476 kts 56°
2026-04-26 12:22 24.33035 79.09360 36767 ft 476 kts 56°
2026-04-26 12:22 24.36573 79.15453 36750 ft 477 kts 55°
2026-04-26 12:23 24.40142 79.21598 36741 ft 478 kts 56°
2026-04-26 12:23 24.43711 79.27747 36741 ft 478 kts 55°
2026-04-26 12:24 24.47280 79.33899 36737 ft 478 kts 56°
2026-04-26 12:24 24.50822 79.40022 36739 ft 478 kts 56°
2026-04-26 12:25 24.56169 79.49285 36737 ft 479 kts 55°
2026-04-26 12:25 24.59729 79.55459 36735 ft 479 kts 55°
2026-04-26 12:26 24.63275 79.61608 36726 ft 479 kts 55°
2026-04-26 12:26 24.66835 79.67788 36727 ft 479 kts 56°
2026-04-26 12:27 24.70397 79.73983 36679 ft 480 kts 56°
2026-04-26 12:27 24.73964 79.80208 36673 ft 481 kts 56°
2026-04-26 12:28 24.77541 79.86460 36660 ft 483 kts 56°
2026-04-26 12:28 24.80596 79.92984 36661 ft 487 kts 70°
2026-04-26 12:29 24.82309 80.00202 36660 ft 488 kts 75°
2026-04-26 12:30 24.84754 80.11093 36663 ft 489 kts 75°
2026-04-26 12:30 24.86386 80.18357 36675 ft 489 kts 75°
2026-04-26 12:31 24.88814 80.29231 36662 ft 491 kts 75°
2026-04-26 12:31 24.90439 80.36546 36657 ft 492 kts 75°
2026-04-26 12:32 24.92061 80.43871 36666 ft 493 kts 75°
2026-04-26 12:33 24.94491 80.54877 36666 ft 493 kts 75°
2026-04-26 12:33 24.96096 80.62178 36658 ft 494 kts 75°
2026-04-26 12:34 24.97709 80.69533 36644 ft 494 kts 75°
2026-04-26 12:34 24.99328 80.76900 36650 ft 495 kts 75°
2026-04-26 12:35 25.00943 80.84275 36654 ft 495 kts 75°
2026-04-26 12:35 25.02542 80.91616 36663 ft 496 kts 75°
2026-04-26 12:36 25.04181 80.99000 36659 ft 496 kts 74°
2026-04-26 12:36 25.05837 81.06382 36657 ft 496 kts 74°
2026-04-26 12:37 25.07487 81.13766 36651 ft 496 kts 74°
2026-04-26 12:37 25.09123 81.21162 36652 ft 496 kts 74°
2026-04-26 12:38 25.10738 81.28502 36655 ft 496 kts 75°
2026-04-26 12:38 25.12362 81.35904 36639 ft 497 kts 74°
2026-04-26 12:39 25.13993 81.43313 36637 ft 497 kts 74°
2026-04-26 12:39 25.15652 81.50730 36635 ft 498 kts 73°
2026-04-26 12:40 25.17355 81.58075 36631 ft 498 kts 73°
2026-04-26 12:40 25.19074 81.65486 36626 ft 498 kts 73°
2026-04-26 12:41 25.20767 81.72910 36633 ft 499 kts 74°
2026-04-26 12:41 25.22442 81.80303 36626 ft 499 kts 74°
2026-04-26 12:42 25.24127 81.87734 36626 ft 499 kts 74°
2026-04-26 12:42 25.25815 81.95178 36622 ft 499 kts 74°
2026-04-26 12:43 25.27496 82.02629 36616 ft 499 kts 74°
2026-04-26 12:43 25.29172 82.10067 36631 ft 499 kts 74°
2026-04-26 12:44 25.30836 82.17467 36621 ft 499 kts 74°
2026-04-26 12:44 25.32505 82.24919 36614 ft 499 kts 74°
2026-04-26 12:45 25.34134 82.32374 36607 ft 499 kts 75°
2026-04-26 12:45 25.35704 82.39853 36613 ft 499 kts 75°
2026-04-26 12:46 25.37271 82.47340 36591 ft 500 kts 75°
2026-04-26 12:46 25.38849 82.54773 36593 ft 500 kts 75°
2026-04-26 12:47 25.40441 82.62260 36596 ft 500 kts 75°
2026-04-26 12:47 25.42032 82.69752 36600 ft 501 kts 75°
2026-04-26 12:48 25.43619 82.77252 36605 ft 501 kts 75°
2026-04-26 12:48 25.45174 82.84709 36603 ft 501 kts 77°
2026-04-26 12:49 25.45888 82.92403 36604 ft 503 kts 84°
2026-04-26 12:49 25.46418 83.00126 36604 ft 504 kts 84°
2026-04-26 12:50 25.46967 83.07855 36608 ft 504 kts 84°
2026-04-26 12:50 25.47507 83.15540 36603 ft 504 kts 84°
2026-04-26 12:51 25.48044 83.23280 36626 ft 504 kts 84°
2026-04-26 12:51 25.48570 83.31009 36619 ft 504 kts 84°
2026-04-26 12:52 25.49085 83.38754 36620 ft 504 kts 84°
2026-04-26 12:52 25.49604 83.46485 36648 ft 504 kts 84°
2026-04-26 12:53 25.50124 83.54226 36652 ft 504 kts 84°
2026-04-26 12:53 25.50634 83.61972 36644 ft 504 kts 84°
2026-04-26 12:54 25.51137 83.69665 36642 ft 504 kts 84°
2026-04-26 12:54 25.51635 83.77395 36645 ft 504 kts 84°
2026-04-26 12:55 25.52137 83.85136 36638 ft 504 kts 84°
2026-04-26 12:55 25.52632 83.92869 36636 ft 503 kts 84°
2026-04-26 12:56 25.53099 84.00585 36671 ft 502 kts 84°
2026-04-26 12:56 25.53538 84.08284 36677 ft 501 kts 84°
2026-04-26 12:57 25.53977 84.15924 36682 ft 500 kts 84°
2026-04-26 12:57 25.54419 84.23603 36688 ft 499 kts 84°
2026-04-26 12:58 25.55076 84.35094 36682 ft 498 kts 84°
2026-04-26 12:58 25.55506 84.42742 36695 ft 497 kts 84°
2026-04-26 12:59 25.55933 84.50383 36693 ft 497 kts 84°
2026-04-26 12:59 25.56350 84.57962 36695 ft 496 kts 84°
2026-04-26 13:00 25.56767 84.65591 36692 ft 497 kts 84°
2026-04-26 13:00 25.57183 84.73228 36725 ft 496 kts 84°
2026-04-26 13:01 25.57590 84.80858 36716 ft 496 kts 84°
2026-04-26 13:01 25.57993 84.88427 36717 ft 495 kts 84°
2026-04-26 13:02 25.58393 84.96039 36714 ft 495 kts 84°
2026-04-26 13:02 25.58787 85.03662 36713 ft 495 kts 84°
2026-04-26 13:03 25.59433 85.11248 36696 ft 493 kts 75°
2026-04-26 13:03 25.60855 85.18695 36680 ft 495 kts 75°
2026-04-26 13:04 25.62264 85.26117 36685 ft 496 kts 75°
2026-04-26 13:04 25.63667 85.33615 36703 ft 497 kts 75°
2026-04-26 13:05 25.65071 85.41127 36707 ft 498 kts 75°
2026-04-26 13:05 25.66479 85.48646 36710 ft 498 kts 75°
2026-04-26 13:06 25.67871 85.56119 36717 ft 498 kts 75°
2026-04-26 13:06 25.69267 85.63637 36718 ft 499 kts 75°
2026-04-26 13:07 25.70660 85.71173 36726 ft 499 kts 75°
2026-04-26 13:07 25.72048 85.78701 36729 ft 499 kts 75°
2026-04-26 13:08 25.73433 85.86194 36730 ft 499 kts 75°
2026-04-26 13:08 25.74820 85.93734 36736 ft 499 kts 75°
2026-04-26 13:09 25.76202 86.01271 36738 ft 499 kts 75°
2026-04-26 13:09 25.77580 86.08811 36736 ft 498 kts 75°
2026-04-26 13:10 25.78948 86.16353 36735 ft 499 kts 76°
2026-04-26 13:10 25.80310 86.23893 36742 ft 497 kts 76°
2026-04-26 13:11 25.81667 86.31360 36755 ft 496 kts 76°
2026-04-26 13:11 25.83022 86.38851 36755 ft 495 kts 76°
2026-04-26 13:12 25.84367 86.46326 36746 ft 494 kts 76°
2026-04-26 13:12 25.85708 86.53792 36759 ft 493 kts 76°
2026-04-26 13:13 25.87042 86.61266 36748 ft 493 kts 77°
2026-04-26 13:13 25.88370 86.68678 36739 ft 493 kts 77°
2026-04-26 13:14 25.89703 86.76137 36746 ft 493 kts 77°
2026-04-26 13:14 25.91024 86.83600 36753 ft 493 kts 77°
2026-04-26 13:15 25.92346 86.91076 36752 ft 493 kts 76°
2026-04-26 13:15 25.93452 86.97291 36747 ft 493 kts 77°
2026-04-26 13:16 25.94992 87.05977 36756 ft 493 kts 77°
2026-04-26 13:16 25.96299 87.13467 36756 ft 493 kts 77°
2026-04-26 13:17 25.98247 87.24694 36757 ft 493 kts 77°
2026-04-26 13:18 26.00192 87.35902 36757 ft 493 kts 78°
2026-04-26 13:19 26.02135 87.47053 36757 ft 493 kts 78°
2026-04-26 13:19 26.03429 87.54564 36759 ft 493 kts 78°
2026-04-26 13:20 26.04708 87.62057 36768 ft 494 kts 78°
2026-04-26 13:20 26.05982 87.69556 36768 ft 494 kts 78°
2026-04-26 13:21 26.07251 87.77012 36769 ft 493 kts 78°
2026-04-26 13:21 26.08523 87.84500 36765 ft 493 kts 77°
2026-04-26 13:21 26.09487 87.88149 36762 ft 491 kts 66°
2026-04-26 13:22 26.10984 87.91542 36763 ft 487 kts 56°
2026-04-26 13:22 26.15342 87.97200 36756 ft 479 kts 36°
2026-04-26 13:23 26.20868 88.01138 36753 ft 474 kts 26°
2026-04-26 13:23 26.26570 88.04853 36775 ft 475 kts 27°
2026-04-26 13:24 26.32274 88.08594 36775 ft 476 kts 27°
2026-04-26 13:24 26.37978 88.12340 36787 ft 476 kts 27°
2026-04-26 13:25 26.43688 88.16081 36784 ft 476 kts 27°
2026-04-26 13:25 26.49359 88.19797 36786 ft 476 kts 27°
2026-04-26 13:26 26.55057 88.23539 36790 ft 476 kts 27°
2026-04-26 13:26 26.60764 88.27288 36794 ft 476 kts 27°
2026-04-26 13:27 26.66397 88.31188 36788 ft 478 kts 35°
2026-04-26 13:27 26.70989 88.36572 36782 ft 483 kts 54°
2026-04-26 13:28 26.74505 88.42943 36519 ft 485 kts 57°
2026-04-26 13:28 26.76270 88.46165 36136 ft 485 kts 57°
2026-04-26 13:28 26.78052 88.49409 35129 ft 493 kts 57°
2026-04-26 13:28 26.79861 88.52703 34237 ft 499 kts 57°
2026-04-26 13:29 26.81669 88.56002 33595 ft 496 kts 57°
2026-04-26 13:29 26.82860 88.58182 32881 ft 498 kts 57°
2026-04-26 13:29 26.85280 88.62625 31824 ft 498 kts 57°
2026-04-26 13:29 26.87084 88.65939 31149 ft 497 kts 57°
2026-04-26 13:30 26.88857 88.69196 30461 ft 496 kts 57°
2026-04-26 13:30 26.90638 88.72473 29720 ft 488 kts 57°
2026-04-26 13:30 26.92385 88.75683 29039 ft 476 kts 57°
2026-04-26 13:30 26.94078 88.78796 28525 ft 460 kts 57°
2026-04-26 13:31 26.95715 88.81808 28014 ft 446 kts 56°
2026-04-26 13:31 26.97302 88.84730 27502 ft 433 kts 56°
2026-04-26 13:31 26.98844 88.87575 27057 ft 422 kts 57°
2026-04-26 13:31 27.00315 88.90391 26572 ft 413 kts 58°
2026-04-26 13:32 27.01700 88.93167 26095 ft 404 kts 59°
2026-04-26 13:32 27.03014 88.95869 25633 ft 395 kts 59°
2026-04-26 13:32 27.04312 88.98548 25172 ft 387 kts 59°
2026-04-26 13:32 27.05596 89.01179 24725 ft 380 kts 59°
2026-04-26 13:33 27.06862 89.03744 24271 ft 373 kts 58°
2026-04-26 13:33 27.08118 89.06267 23829 ft 367 kts 58°
2026-04-26 13:33 27.09362 89.08751 23374 ft 362 kts 58°
2026-04-26 13:33 27.10583 89.11193 22875 ft 355 kts 58°
2026-04-26 13:34 27.11766 89.13569 22657 ft 343 kts 58°
2026-04-26 13:34 27.12917 89.15884 22400 ft 336 kts 58°
2026-04-26 13:34 27.14029 89.18119 22150 ft 327 kts 58°
2026-04-26 13:34 27.14401 89.18867 22065 ft 323 kts 58°
2026-04-26 13:35 27.16168 89.22429 21645 ft 306 kts 59°
2026-04-26 13:35 27.16981 89.24600 21393 ft 298 kts 71°
2026-04-26 13:35 27.17418 89.26842 21158 ft 291 kts 83°
2026-04-26 13:35 27.17594 89.29080 20912 ft 284 kts 84°
2026-04-26 13:36 27.17763 89.31275 20691 ft 280 kts 84°
2026-04-26 13:36 27.17931 89.33439 20275 ft 277 kts 84°
2026-04-26 13:36 27.18097 89.35553 19853 ft 274 kts 84°
2026-04-26 13:36 27.18262 89.37672 19445 ft 271 kts 85°
2026-04-26 13:37 27.18423 89.39773 19021 ft 268 kts 85°
2026-04-26 13:37 27.18581 89.41836 18695 ft 262 kts 85°
2026-04-26 13:37 27.18850 89.43841 18325 ft 259 kts 76°
2026-04-26 13:37 27.19422 89.45744 17915 ft 256 kts 65°
2026-04-26 13:38 27.20251 89.47493 17494 ft 252 kts 56°
2026-04-26 13:38 27.21290 89.49048 17180 ft 244 kts 46°
2026-04-26 13:38 27.22461 89.50336 17054 ft 229 kts 38°
2026-04-26 13:38 27.23709 89.51363 16953 ft 216 kts 29°
2026-04-26 13:39 27.24995 89.52160 16825 ft 207 kts 25°
2026-04-26 13:39 27.26235 89.52895 16680 ft 197 kts 25°
2026-04-26 13:39 27.27434 89.53607 16476 ft 194 kts 25°
2026-04-26 13:39 27.28633 89.54230 16222 ft 190 kts 13°
2026-04-26 13:40 27.29924 89.54371 15955 ft 185 kts 351°
2026-04-26 13:40 27.31140 89.53974 15712 ft 181 kts 330°
2026-04-26 13:40 27.32127 89.53123 15446 ft 178 kts 309°
2026-04-26 13:40 27.32776 89.51951 15198 ft 177 kts 290°
2026-04-26 13:41 27.33023 89.50611 14946 ft 176 kts 270°
2026-04-26 13:41 27.32938 89.49224 14645 ft 180 kts 269°
2026-04-26 13:41 27.33006 89.48294 14476 ft 180 kts 280°
2026-04-26 13:41 27.33415 89.46965 14215 ft 181 kts 297°
2026-04-26 13:42 27.34166 89.45835 13966 ft 181 kts 315°
2026-04-26 13:42 27.35560 89.44816 13624 ft 183 kts 338°
2026-04-26 13:42 27.36755 89.44333 13358 ft 182 kts 338°
2026-04-26 13:42 27.37939 89.43823 13099 ft 182 kts 338°
2026-04-26 13:43 27.38708 89.43474 12916 ft 180 kts 333°
2026-04-26 13:43 27.39782 89.42103 12436 ft 177 kts 294°
2026-04-26 13:43 27.40095 89.41254 12212 ft 177 kts 290°
2026-04-26 13:43 27.40510 89.39953 11882 ft 176 kts 284°
2026-04-26 13:44 27.40765 89.38637 11595 ft 167 kts 279°
2026-04-26 13:44 27.41041 89.36906 10940 ft 171 kts 278°
2026-04-26 13:44 27.41183 89.36015 10677 ft 171 kts 279°
2026-04-26 13:44 27.41798 89.34926 10275 ft 169 kts 326°
2026-04-26 13:45 27.42038 89.34735 10166 ft 0 kts 226°